Red Line 325 - inventory

Station: Inventory - T Race

Distance: 0 Miles    

Release: 19-Mar-2017 07:15

Weather Release:    Arrival:

Wind at Release:     Wind at Arrival:

Temp at Release: °    Temp at Arrival: °

Lofts: 42

Birds: 108

Clocked: 0

Good Luck to Everyone!
Drops Pos Breeder Pigeon Name Color Sex Ent Arrival Speed To Win Eligible AvgTeam
Nesneb Racing Loft 16121-AU16-MOBL Miss Cadillac BC H 08:20:38.00 0.000 Yes
Johnny's Automotive 20704-AU16-JEDD ARIANI BB H 08:20:45.00 0.000 Yes
Racing Pigeon Mall 0622-AU16-RPM The Big Easy VELV C 08:20:48.00 0.000 Yes
Sienna Loft 0234-IF16-TRC Top Dog BB C 08:20:55.00 0.000 N/E
Acre Farms 0270-AU16-GENE ORIGINATOR BC C 08:20:56.00 0.000 Yes
111 Loft 0549-AU16-GUO Blue Jasmine BB H 08:20:58.00 0.000 Yes
Hollywood Lou Loft 77572-AU16-ARPU PERFECT CHOICE BC H 08:20:58.00 0.000 Yes
Daehn/Miele 0036-AU16-NWFI Private Ryan BB C 08:20:59.00 0.000 Yes
Red Ass Ranch 0113-AU16-RAR EXACTA BBWF C 08:21:00.00 0.000 N/E
1-Tonyloft 4310-AU16-TONY Esmeralda BB H 08:21:00.00 0.000 Yes
Wareagle Loft 0244-AU16-WEL West Wing BB C 08:21:01.00 0.000 Yes
Acre Farms 0274-AU16-GENE WINTERHAVEN BC C 08:21:05.00 0.000 Yes
Carini & Medeiros Loft 1657-AU16-CRNI TWOS a crowd BC H 08:21:06.00 0.000 Yes
Red Ass Ranch 0127-AU16-RAR My Alibi BB H 08:21:07.00 0.000 Yes
Jack's Loft 3211-AU16-FOYS CHANGE THE GAME GR C 08:21:07.00 0.000 Yes
Sienna Loft 0339-IF16-SRPC Rocky BV C 08:21:10.00 0.000 N/E
Lewis & King 85214-AU16-ARPU Blue Collar BC C 08:21:12.00 0.000 Yes
Marengo Creek Farms 2421-AU16-MCF It could Happen to You BB H 08:21:12.00 0.000 Yes
Daehn/Miele 0038-AU16-NWFI Shag me Baby BBWF C 08:21:13.00 0.000 Yes
Hollywood Lou Loft 77567-AU16-ARPU WIND JAMMER BB C 08:21:13.00 0.000 N/E
Turk Brand Syndicate 1417-AU16-ER Crown Royale BWFP H 08:21:14.00 0.000 Yes
Bluestreak 1053-AU16-AKY Thriller BL C 08:21:16.00 0.000 Yes
Nesneb Racing Loft 16119-AU16-MOBL To Be Determined BWFP H 08:21:18.00 0.000 Yes
Freds Loft 0929-AU16-FRED Southern Pride GR H 08:21:21.00 0.000 Yes
Nesler Boyz 0698-AU16-TCH Main Squeeze BC H 08:21:22.00 0.000 Yes
Canto/Wiltz Syndicate 0040-AU16-CNTO Brick House CHO H 08:21:22.00 0.000 Yes
Nesler Boyz 0693-AU16-TCH Under the Radar GR H 08:21:23.00 0.000 Yes
Rachel Olivieri 1819-AU16-JEDD TOTAL ASSET BBPD C 08:21:24.00 0.000 Yes
Hollywood Lou Loft 77528-AU16-ARPU Mr. Euro BC C 08:21:24.00 0.000 N/E
Wessel Family Lofts 0973-AU16-ARC End Around BB C 08:21:24.00 0.000 Yes
Racing Pigeon Mall 0625-AU16-RPM Rachel's Bold As Black BLK H 08:21:26.00 0.000 Yes
Nesler Boyz 0696-AU16-TCH Color Code BC H 08:21:27.00 0.000 Yes
Freds Loft 0942-AU16-FRED The Blaze WHIT H 08:21:33.00 0.000 Yes
Turk Brand Syndicate 0094-AU16-NPL Born Legacy BB H 08:21:34.00 0.000 Yes
Marengo Creek Farms 2419-AU16-MCF Heart Throb BBWF H 08:21:55.00 0.000 Inj
Freds Loft 0924-AU16-FRED Another Hollywood BB C 08:21:58.00 0.000 Yes
Bluestreak 0614-AU16-TCH Breaker BL C 08:22:37.00 0.000 Yes
Bluestreak 1056-AU16-AKY Insiders Choice BL H 08:25:16.00 0.000 Yes
Daehn/Miele 0048-AU16-NWFI Andromeda BBWF C 08:25:17.00 0.000 Yes
Canto/Wiltz Syndicate 0045-AU16-CNTO MR. PRIORITY CWF C 08:25:18.00 0.000 Yes
Daehn/Miele 0047-AU16-NWFI New World BB C 08:25:20.00 0.000 Yes
Daehn/Miele 0050-AU16-NWFI Miss Perfection BB H 08:25:22.00 0.000 Yes
Hi-Cal Connection 0765-AU16-HICL SPICE GIRL BC H 08:25:23.00 0.000 Yes
Jack's Loft 1051-AU16-AKY Major Concern BB H 08:25:25.00 0.000 Yes
Hollywood Lou Loft 77573-AU16-ARPU Hulk Hogan Again BB C 08:25:27.00 0.000 Yes
Marengo Creek Farms 2417-AU16-MCF Blue Diva BB H 08:25:27.00 0.000 Yes
Tar Syndicate 6841-IF16-TAR Kathy AT BBWF H 08:25:29.00 0.000 Yes
Drama Queen Loft 0272-AU16-GCI Say It Aint So BB H 08:25:30.00 0.000 Yes
Daehn/Miele 0049-AU16-NWFI Media Blitz BB C 08:25:31.00 0.000 Yes
Daehn/Miele 0043-AU16-NWFI BLUE ELECTRA BB H 08:25:31.00 0.000 Yes
Sienna Loft 0201-IF16-TRC My Aunt Tilly BB H 08:25:32.00 0.000 N/E
Sienna Loft 0073-IF16-TRC California Girl BB H 08:25:33.00 0.000 N/E
Turk Brand Syndicate 0066-AU16-BLOK Point Man BC C 08:25:35.00 0.000 Yes
John Partridge 0081-AU16-PASO Born Supreme BC C 08:25:35.00 0.000 Yes
Acre Farms 0292-AU16-GENE PLATINUM BC H 08:25:36.00 0.000 Yes
Johnny's Automotive 23599-AU16-JEDD INGES CLONE BB H 08:25:36.00 0.000 Yes
Nesler Boyz 0672-AU16-TCH Ultimate Diva BL H 08:25:44.00 0.000 Yes
Wareagle Loft 0257-AU16-WEL Drama Queen BB H 08:25:47.00 0.000 Yes
1-Tonyloft 4576-AU16-TONY Regal Rider BWFP C 08:25:50.00 0.000 Yes
Sienna Loft 0095-IF16-TRC LiL Van Kleek BB C 08:25:54.00 0.000 N/E
Nesneb Racing Loft 16120-AU16-MOBL Another Harry BB C 08:25:55.00 0.000 Yes
Carini & Medeiros Loft 1677-AU16-CRNI Remote Asset BC H 08:25:57.00 0.000 Yes
Walstons Warriors 6361-AU16-GL RED EAGLE SIL C 08:25:59.00 0.000 Yes
Wessel Family Lofts 1073-AU16-AKY Ricky Allen BB C 08:25:59.00 0.000 Yes
A & S Loft 16058-AU16-PBLO Constant Reminder BCWP C 08:26:00.00 0.000 Yes
Walstons Warriors 6353-AU16-GL Wind Talker SMBB C 08:26:00.00 0.000 Yes
Acre Farms 0269-AU16-GENE IN A FLASH BCWP C 08:26:01.00 0.000 Yes
John Partridge 0043-AU16-PASO Dark Intentions CWF H 08:26:04.00 0.000 Yes
Marengo Creek Farms 2433-AU16-MCF The Chosen One BC C 08:26:09.00 0.000 Yes
Acre Farms 0262-AU16-GENE IMPOSTER BB C 08:26:10.00 0.000 N/E
Bieche Lofts 6478-AU16-BCH Somebody Stop Me BC C 08:26:10.00 0.000 Yes
Daehn/Miele 0039-AU16-NWFI In the Bank BB C 08:26:11.00 0.000 Yes
Hosanna Lofts 52902-AU16-ARPU Blue Diamond BB C 08:26:46.00 0.000 Yes
It's About Time 8184-AU16-AU Americana SIL C 08:27:21.00 0.000 N/E
Wessel Family Lofts 0977-AU16-ARC Nuance BB C 08:27:23.00 0.000 Yes
Hollywood Lou Loft 77513-AU16-ARPU MARCIANNA BC H 08:28:07.00 0.000 N/E
Rick Derrow 12435-AU16-FOYS Imagine That BBWF C 08:28:23.00 0.000 N/E
Schoors & Sons 0052-AU16-SCHR Valley Girl BB H 08:28:35.00 0.000 Yes
Hosanna Lofts 52912-AU16-ARPU Honey Blue BB H 08:28:39.00 0.000 Yes
Who Dat Loft 1058-AU16-AKY Assigned to Win BL H 08:29:03.00 0.000 Yes
Carini & Medeiros Loft 1672-AU16-CRNI No Reservation SLAT H 08:29:39.00 0.000 Yes
Acre Farms 0263-AU16-GENE KARMA JO BC H 08:29:43.00 0.000 Yes
Carini & Medeiros Loft 1669-AU16-CRNI JOE'' ML C 08:29:43.00 0.000 Yes
Sienna Loft 0202-IF16-TRC Pretty Woman BCP H 08:29:44.00 0.000 Yes
Rick Derrow 12432-AU16-FOYS The Mountaineer BB H 08:29:45.00 0.000 N/E
Hollywood Lou Loft 77543-AU16-ARPU Chicago Blue BB C 08:29:46.00 0.000 N/E
Nesneb Racing Loft 16106-AU16-MOBL American Standard BWFP C 08:29:47.00 0.000 Yes
Hosanna Lofts 52915-AU16-ARPU ITS ALL CASH BB H 08:29:54.00 0.000 Yes
Bieche Lofts 6367-AU16-BCH Euro Girl BB H 08:29:56.00 0.000 Yes
Nesler Boyz 0673-AU16-TCH Slam Dunk BL H 08:30:00.00 0.000 Yes
Carini & Medeiros Loft 1656-AU16-CRNI LUCKY STRIKE BB H 08:30:11.00 0.000 Yes
111 Loft 0550-AU16-GUO Ghinghis Khan BB C 08:30:21.00 0.000 Yes
John Partridge 0053-AU16-PASO Sure Thing BBWF C 08:31:23.00 0.000 Yes
Rachel Olivieri 1816-AU16-JEDD ITS UNANIMOUS BB H 08:31:24.00 0.000 Yes
Hollywood Lou Loft 1055-AU16-AKY Blue Water BLUE H 08:31:25.00 0.000 Yes
Carini & Medeiros Loft 1658-AU16-CRNI BELLADONNA BC H 08:31:26.00 0.000 Yes
Bluestreak 1079-AU16-AKY Napili BWF H 08:31:28.00 0.000 Yes
Daehn/Miele 0037-AU16-NWFI Miss Fortune BBWF H 08:31:33.00 0.000 Yes
111 Loft 0542-AU16-GUO Imperial Lady RP H 08:31:38.00 0.000 Yes
Dave Dudley 16076-AU16-PBLO ARIANNA BB H 08:31:42.00 0.000 Yes

There are 126 bird records

Note: These Race Results are unofficial and subject to change until verified by the Race Committee and declared final.